This is the latest recevied weather packets stored in our database for station/object DB0MAK-13. If no packets are shown the sender has not sent any weather packets the latest 10 day(s).
| Time | Temp. | Humidity | Pressure | Rain* | Wind** | Luminosity | Snow |
|---|---|---|---|---|---|---|---|
| 1777619826 | 10.56° C | 57% | 1028.3 hPa | 0 mm | - | - | - |
| 1777619644 | 10.56° C | 58% | 1028.3 hPa | 0 mm | - | - | - |
| 1777619408 | 10° C | 59% | 1028.4 hPa | 0 mm | - | - | - |
| 1777619044 | 9.44° C | 61% | 1028.3 hPa | 0 mm | - | - | - |
| 1777618988 | 9.44° C | 61% | 1028.4 hPa | 0 mm | - | - | - |
| 1777618566 | 9.44° C | 62% | 1028.4 hPa | 0 mm | - | - | - |
| 1777618444 | 9.44° C | 63% | 1028.4 hPa | 0 mm | - | - | - |
| 1777618148 | 8.89° C | 63% | 1028.3 hPa | 0 mm | - | - | - |
| 1777617844 | 8.33° C | 64% | 1028.3 hPa | 0 mm | - | - | - |
| 1777617728 | 8.33° C | 65% | 1028.4 hPa | 0 mm | - | - | - |
| 1777617306 | 7.78° C | 66% | 1028.3 hPa | 0 mm | - | - | - |
| 1777617244 | 7.78° C | 66% | 1028.3 hPa | 0 mm | - | - | - |
| 1777616886 | 7.78° C | 67% | 1028.2 hPa | 0 mm | - | - | - |
| 1777616644 | 7.22° C | 68% | 1028.2 hPa | 0 mm | - | - | - |
| 1777616466 | 7.22° C | 69% | 1028.2 hPa | 0 mm | - | - | - |
| 1777616044 | 6.11° C | 70% | 1028.2 hPa | 0 mm | - | - | - |
| 1777615444 | 5.56° C | 70% | 1028.2 hPa | 0 mm | - | - | - |
| 1777615206 | 5.56° C | 71% | 1028.3 hPa | 0 mm | - | - | - |
| 1777614844 | 5° C | 73% | 1028.2 hPa | 0 mm | - | - | - |
| 1777614786 | 5° C | 73% | 1028.2 hPa | 0 mm | - | - | - |
| 1777614366 | 4.44° C | 75% | 1028.2 hPa | 0 mm | - | - | - |
| 1777614244 | 4.44° C | 75% | 1028 hPa | 0 mm | - | - | - |
| 1777613948 | 3.89° C | 76% | 1028 hPa | 0 mm | - | - | - |
| 1777613644 | 3.33° C | 77% | 1028 hPa | 0 mm | - | - | - |
| 1777613526 | 3.33° C | 78% | 1028 hPa | 0 mm | - | - | - |
* Rain latest hour (hover to see other rain measurements)
** Current wind speed in m/s (hover to see current wind gust speed)